Location: Quaker Farms
(41.4276°N, 73.1557°W)
Time: 11:32:59
(UTC+00:00)

Transit 4A - Visible Passes

Search period start: 13 June 2021 00:00
Search period end: 23 June 2021 00:00
Orbit: 871 x 973 km, 66.8° (Epoch: 13 June)

Date Brightness Start Highest point End Pass type
(mag) Time Alt. Az. Time Alt. Az. Time Alt. Az.
13 Jun 9.5 02:14:42 10° NW 02:19:13 24° WSW 02:23:45 10° SSW visible
14 Jun 10.0 02:25:02 10° WNW 02:28:14 15° WSW 02:31:27 10° SW visible
16 Jun 8.7 00:55:35 10° NW 01:01:08 47° WSW 01:06:42 10° S visible
17 Jun 9.4 01:05:14 10° NW 01:10:16 31° WSW 01:15:20 10° S visible
18 Jun 10.0 01:15:11 10° WNW 01:19:19 20° WSW 01:23:30 10° SSW visible
19 Jun 10.3 01:25:52 10° WNW 01:28:19 13° WSW 01:30:47 10° SW visible
